Date String (YYYY-MM-DD hh:mm:ss) UTC,Instrument flags,absolute air pressure of the measurement (hPa),sample flow rate (lpm),inlet stack bypass flow (lpm),air temperature of the measurement (°C),ambient temperature measured by the external sensor (°C),aerosol sample conditioner tube jacket temperature (°C),OPC LED temperature (°C),internal box temperature (°C),relative humidity of the measurement (%),span deviation,mass concentration of particles derived from Lorenz-Mie calculation of OPC scattering (μg/m³),mass concentration of particles derived from Lorenz-Mie calculation of OPC scattering (μg/m³),mass concentration of particles derived from Lorenz-Mie calculation of OPC scattering (μg/m³)
DateTimeUTC,F1_M11,P_M11,Q1_M11,Q2_M11,T1_M11,T2_M11,T3_M11,T4_M11,T5_M11,U1_M11,ZSPAN_M11,X0_M11,X2_M11,X1_M11
2023-06-15 21:00:00,SystemResetWarning,0825.9,5.01,000.00,029.7,027.8,000.0,038.2,031.3,24.9,0000.0,0006.82,0003.19,0002.33
2023-06-15 21:01:00,SystemResetWarning,0825.9,4.99,000.00,029.7,028.0,000.0,038.2,031.3,25.0,0000.0,0006.88,0003.19,0002.31
2023-06-15 21:02:00,SystemResetWarning,0825.9,5.00,000.00,029.7,028.1,000.0,038.2,031.4,25.0,0000.0,0007.18,0003.19,0002.29
2023-06-15 21:03:00,SystemResetWarning,0825.9,5.00,000.00,029.8,028.3,000.0,038.2,031.4,27.0,0000.0,0006.56,0003.20,0002.29
2023-06-15 21:04:00,SystemResetWarning,0825.9,5.00,000.00,029.8,028.4,000.0,038.3,031.5,24.2,0000.0,0006.46,0003.18,0002.27
2023-06-15 21:05:00,SystemResetWarning,0825.9,4.99,000.00,029.8,027.9,000.0,038.3,031.4,24.7,0000.0,0006.45,0003.17,0002.25
2023-06-15 21:06:00,SystemResetWarning,0825.9,5.00,000.00,029.8,025.8,000.0,038.2,031.2,23.5,0000.0,0006.77,0003.08,0002.19
2023-06-15 21:07:00,SystemResetWarning,0825.9,5.00,000.00,029.8,025.2,000.0,038.2,031.2,25.3,0000.0,0006.49,0002.97,0002.13
2023-06-15 21:08:00,SystemResetWarning,0825.9,5.01,000.00,029.7,025.4,000.0,038.1,031.0,25.8,0000.0,0006.58,0002.98,0002.12
2023-06-15 21:09:00,SystemResetWarning,0825.9,5.01,000.00,029.6,025.8,000.0,038.2,031.0,24.6,0000.0,0006.83,0002.95,0002.13
2023-06-15 21:10:00,SystemResetWarning,0825.8,5.00,000.00,029.6,026.3,000.0,038.2,031.0,25.7,0000.0,0006.72,0002.89,0002.12
2023-06-15 21:11:00,SystemResetWarning,0825.8,5.00,000.00,029.6,026.7,000.0,038.2,031.1,25.5,0000.0,0006.36,0002.83,0002.10
2023-06-15 21:12:00,SystemResetWarning,0825.8,5.00,000.00,029.6,027.1,000.0,038.2,031.1,26.0,0000.0,0006.25,0002.80,0002.10
2023-06-15 21:13:00,SystemResetWarning,0825.8,5.00,000.00,029.6,027.4,000.0,038.2,031.2,26.4,0000.0,0005.93,0002.80,0002.09
2023-06-15 21:14:00,SystemResetWarning,0825.7,5.00,000.00,029.7,027.6,000.0,038.2,031.2,27.2,0000.0,0006.65,0002.78,0002.08
2023-06-15 21:15:00,SystemResetWarning,0825.7,5.00,000.00,029.7,027.9,000.0,038.2,031.3,28.5,0000.0,0007.56,0002.83,0002.08
2023-06-15 21:16:00,SystemResetWarning,0825.8,5.00,000.00,029.7,028.1,000.0,038.2,031.3,27.4,0000.0,0007.53,0002.81,0002.08
2023-06-15 21:17:00,SystemResetWarning,0825.8,5.00,000.00,029.8,028.2,000.0,038.2,031.4,26.9,0000.0,0007.17,0002.81,0002.07
2023-06-15 21:18:00,SystemResetWarning,0825.8,5.00,000.00,029.8,028.4,000.0,038.3,031.4,27.9,0000.0,0006.69,0002.82,0002.07
2023-06-15 21:19:00,SystemResetWarning,0825.7,4.99,000.00,029.8,027.6,000.0,038.2,031.5,26.5,0000.0,0006.67,0002.82,0002.06
2023-06-15 21:20:00,SystemResetWarning,0825.7,5.01,000.00,029.8,025.6,000.0,038.2,031.3,25.6,0000.0,0006.41,0002.86,0002.04
2023-06-15 21:21:00,SystemResetWarning,0825.7,5.00,000.00,029.8,025.2,000.0,038.2,031.3,25.4,0000.0,0006.35,0002.87,0002.02
2023-06-15 21:22:00,SystemResetWarning,0825.7,5.01,000.00,029.7,025.5,000.0,038.1,031.0,26.4,0000.0,0006.30,0002.84,0002.01
2023-06-15 21:23:00,SystemResetWarning,0825.7,5.00,000.00,029.6,025.9,000.0,038.2,031.0,28.8,0000.0,0006.35,0002.84,0002.01
2023-06-15 21:24:00,SystemResetWarning,0825.7,5.00,000.00,029.6,026.3,000.0,038.1,031.0,29.9,0000.0,0006.36,0002.83,0002.01
2023-06-15 21:25:00,SystemResetWarning,0825.8,5.01,000.00,029.6,026.8,000.0,038.2,031.1,31.1,0000.0,0006.30,0002.85,0002.02
2023-06-15 21:26:00,SystemResetWarning,0825.7,4.99,000.00,029.6,027.1,000.0,038.2,031.1,29.2,0000.0,0004.74,0002.86,0002.03
2023-06-15 21:27:00,SystemResetWarning,0825.8,4.99,000.00,029.6,027.4,000.0,038.2,031.2,26.9,0000.0,0004.85,0002.91,0002.04
2023-06-15 21:28:00,SystemResetWarning,0825.8,5.01,000.00,029.7,027.7,000.0,038.2,031.3,28.1,0000.0,0005.16,0002.96,0002.06
2023-06-15 21:29:00,SystemResetWarning,0825.8,5.02,000.00,029.7,027.9,000.0,038.2,031.3,29.2,0000.0,0005.35,0002.98,0002.07
2023-06-15 21:30:00,SystemResetWarning,0825.8,5.01,000.00,029.7,028.1,000.0,038.2,031.3,29.4,0000.0,0005.32,0002.96,0002.09
2023-06-15 21:31:00,SystemResetWarning,0825.8,5.00,000.00,029.8,028.3,000.0,038.2,031.4,27.3,0000.0,0005.34,0002.95,0002.11
2023-06-15 21:32:00,SystemResetWarning,0825.8,5.00,000.00,029.8,028.4,000.0,038.2,031.4,27.9,0000.0,0005.39,0002.99,0002.14
2023-06-15 21:33:00,SystemResetWarning,0825.8,4.99,000.00,029.8,028.3,000.0,038.3,031.5,28.2,0000.0,0005.68,0003.09,0002.17
2023-06-15 21:34:00,SystemResetWarning,0825.7,5.00,000.00,029.8,026.3,000.0,038.2,031.4,27.1,0000.0,0005.88,0003.14,0002.20
2023-06-15 21:35:00,SystemResetWarning,0825.7,5.01,000.00,029.8,025.3,000.0,038.2,031.3,26.9,0000.0,0006.09,0003.18,0002.20
2023-06-15 21:36:00,SystemResetWarning,0825.7,5.01,000.00,029.7,025.4,000.0,038.2,031.1,27.1,0000.0,0006.19,0003.20,0002.19
2023-06-15 21:37:00,SystemResetWarning,0825.7,5.00,000.00,029.7,025.7,000.0,038.2,031.0,27.1,0000.0,0006.16,0003.19,0002.19
2023-06-15 21:38:00,SystemResetWarning,0825.7,5.00,000.00,029.6,026.2,000.0,038.2,031.0,26.7,0000.0,0005.84,0003.13,0002.17
2023-06-15 21:39:00,SystemResetWarning,0825.8,5.00,000.00,029.6,026.6,000.0,038.2,031.1,26.6,0000.0,0005.61,0003.08,0002.15
2023-06-15 21:40:00,SystemResetWarning,0825.8,5.01,000.00,029.6,027.0,000.0,038.2,031.1,26.2,0000.0,0005.53,0003.07,0002.14
2023-06-15 21:41:00,SystemResetWarning,0825.8,4.97,000.00,029.7,027.4,000.0,038.2,031.2,28.4,0000.0,0005.95,0003.10,0002.13
2023-06-15 21:42:00,SystemResetWarning,0825.8,5.02,000.00,029.7,027.6,000.0,038.2,031.3,27.9,0000.0,0005.96,0003.11,0002.12
2023-06-15 21:43:00,SystemResetWarning,0825.8,5.01,000.00,029.7,027.9,000.0,038.2,031.3,27.0,0000.0,0005.90,0003.06,0002.11
2023-06-15 21:44:00,SystemResetWarning,0825.7,4.99,000.00,029.7,028.1,000.0,038.2,031.4,26.1,0000.0,0005.74,0002.98,0002.09
2023-06-15 21:45:00,SystemResetWarning,0825.8,4.99,000.00,029.8,028.2,000.0,038.3,031.4,26.2,0000.0,0005.43,0002.89,0002.07
2023-06-15 21:46:00,SystemResetWarning,0825.7,5.00,000.00,029.8,028.4,000.0,038.3,031.5,26.1,0000.0,0005.35,0002.83,0002.06
2023-06-15 21:47:00,SystemResetWarning,0825.8,5.00,000.00,029.9,028.1,000.0,038.3,031.5,27.8,0000.0,0005.36,0002.81,0002.06
2023-06-15 21:48:00,SystemResetWarning,0825.8,5.01,000.00,029.9,026.1,000.0,038.2,031.4,27.3,0000.0,0005.27,0002.82,0002.05
2023-06-15 21:49:00,SystemResetWarning,0825.7,5.01,000.00,029.8,025.3,000.0,038.2,031.3,26.3,0000.0,0005.34,0002.86,0002.05
2023-06-15 21:50:00,SystemResetWarning,0825.6,5.02,000.00,029.7,025.5,000.0,038.2,031.0,26.0,0000.0,0005.47,0002.90,0002.04
2023-06-15 21:51:00,SystemResetWarning,0825.7,5.00,000.00,029.6,025.8,000.0,038.2,031.0,27.0,0000.0,0005.20,0002.86,0002.04
2023-06-15 21:52:00,SystemResetWarning,0825.6,4.99,000.00,029.6,026.3,000.0,038.2,031.0,29.0,0000.0,0004.66,0002.80,0002.03
2023-06-15 21:53:00,SystemResetWarning,0825.6,4.98,000.00,029.6,026.7,000.0,038.2,031.1,29.7,0000.0,0004.51,0002.78,0002.04
2023-06-15 21:54:00,SystemResetWarning,0825.6,5.02,000.00,029.7,027.1,000.0,038.2,031.2,27.0,0000.0,0004.46,0002.77,0002.03
2023-06-15 21:55:00,SystemResetWarning,0825.6,5.01,000.00,029.7,027.4,000.0,038.2,031.2,27.5,0000.0,0004.41,0002.77,0002.02
2023-06-15 21:56:00,SystemResetWarning,0825.6,5.00,000.00,029.7,027.7,000.0,038.2,031.3,28.1,0000.0,0004.50,0002.76,0002.01
2023-06-15 21:57:00,SystemResetWarning,0825.6,4.99,000.00,029.7,027.9,000.0,038.2,031.3,28.4,0000.0,0005.20,0002.77,0002.02
2023-06-15 21:58:00,SystemResetWarning,0825.6,5.00,000.00,029.8,028.1,000.0,038.2,031.4,27.9,0000.0,0004.96,0002.71,0002.00
2023-06-15 21:59:00,SystemResetWarning,0825.6,5.00,000.00,029.8,028.3,000.0,038.3,031.4,25.7,0000.0,0004.84,0002.63,0001.98
